Location: Tom
(33.0437°N, 96.9452°W)
Time: 18:09:28
(UTC-06:00)

Envisat - Visible Passes

Search period start: 23 January 2019 00:00
Search period end: 02 February 2019 00:00
Orbit: 764 x 766 km, 98.2° (Epoch: 23 January)

Date Brightness Start Highest point End Pass type
(mag) Time Alt. Az. Time Alt. Az. Time Alt. Az.
23 Jan 3.8 18:30:38 10° SE 18:34:54 28° ENE 18:39:11 10° NNE visible
23 Jan 5.0 20:09:34 10° SSW 20:13:48 27° W 20:18:05 10° NW visible
24 Jan 6.2 06:45:17 10° ENE 06:47:39 13° E 06:50:01 10° ESE visible
24 Jan 3.3 19:31:56 10° S 19:36:57 66° WSW 19:42:01 10° NNW visible
25 Jan 3.1 18:55:24 10° SSE 19:00:17 51° ENE 19:05:12 10° N visible
25 Jan 5.9 20:36:53 10° SW 20:39:31 14° W 20:42:12 10° WNW visible
26 Jan 4.1 18:19:58 10° ESE 18:23:48 22° ENE 18:27:38 10° NNE visible
26 Jan 4.6 19:57:57 10° SSW 20:02:33 34° W 20:07:10 10° NNW visible
27 Jan 3.0 19:20:41 10° SSE 19:25:45 85° WSW 19:30:52 10° NNW visible
28 Jan 3.4 18:44:26 10° SE 18:49:08 39° ENE 18:53:51 10° N visible
28 Jan 5.6 20:24:45 10° SW 20:28:14 19° W 20:31:45 10° NW visible
29 Jan 4.1 19:46:29 10° S 19:51:19 45° W 19:56:11 10° NNW visible
30 Jan 2.9 19:09:31 10° SSE 19:14:34 74° ENE 19:19:39 10° N visible
31 Jan 3.7 18:33:36 10° SE 18:38:00 31° ENE 18:42:25 10° N visible
31 Jan 5.2 20:12:54 10° SSW 20:16:58 24° W 20:21:03 10° NW visible
01 Feb 6.2 06:48:00 10° ENE 06:50:49 15° E 06:53:37 10° SE visible
01 Feb 3.5 19:35:06 10° S 19:40:05 59° W 19:45:07 10° NNW visible
